• In United Kingdom
  • List of Countries
  • For 7 days
  • Water Temperature
  • Satellite Maps
  • Weather Map
  • Weather Widgets
  • user-avatar
    Login

    Hourly Weather Casablanca

    Today, 17 August, Thursday

    Time Temperature Precipitation Wind Pressure Humidity
    00:00 +26°C° 0 mm 2 mps 761 mmHg 59%
    01:00 +26°C° 0 mm 3 mps 761 mmHg 61%
    02:00 +25°C° 0 mm 3 mps 760 mmHg 62%
    03:00 +25°C° 0 mm 2 mps 760 mmHg 63%
    04:00 +25°C° 0 mm 2 mps 760 mmHg 64%
    05:00 +25°C° 0 mm 2 mps 760 mmHg 65%
    06:00 +26°C° 0 mm 2 mps 760 mmHg 58%
    07:00 +28°C° 0 mm 2 mps 760 mmHg 50%
    08:00 +30°C° 0 mm 2 mps 760 mmHg 43%
    09:00 +33°C° 0 mm 3 mps 760 mmHg 40%
    10:00 +34°C° 0 mm 4 mps 760 mmHg 38%
    11:00 +36°C° 0 mm 4 mps 760 mmHg 35%
    12:00 +36°C° 0 mm 5 mps 759 mmHg 36%
    13:00 +36°C° 0 mm 5 mps 759 mmHg 37%
    14:00 +36°C° 0 mm 6 mps 759 mmHg 38%
    15:00 +34°C° 0 mm 6 mps 759 mmHg 42%
    16:00 +33°C° 0 mm 5 mps 759 mmHg 45%
    17:00 +32°C° 0 mm 5 mps 759 mmHg 49%
    18:00 +30°C° 0 mm 4 mps 759 mmHg 53%
    19:00 +29°C° 0 mm 4 mps 759 mmHg 56%
    20:00 +28°C° 0 mm 3 mps 760 mmHg 60%
    21:00 +27°C° 0 mm 3 mps 760 mmHg 62%
    22:00 +27°C° 0 mm 3 mps 760 mmHg 64%
    23:00 +27°C° 0 mm 3 mps 760 mmHg 66%

    Tomorrow, 18 August, Friday

    Time Temperature Precipitation Wind Pressure Humidity
    00:00 +26°C° 0 mm 2 mps 759 mmHg 68%
    01:00 +26°C° 0 mm 2 mps 759 mmHg 70%
    02:00 +25°C° 0 mm 2 mps 759 mmHg 73%
    03:00 +25°C° 0 mm 1 mps 759 mmHg 74%
    04:00 +25°C° 0 mm 1 mps 759 mmHg 75%
    05:00 +25°C° 0 mm 1 mps 759 mmHg 76%
    06:00 +26°C° 0 mm 1 mps 759 mmHg 69%
    07:00 +28°C° 0 mm 2 mps 759 mmHg 62%
    08:00 +29°C° 0 mm 2 mps 759 mmHg 55%
    09:00 +31°C° 0 mm 3 mps 759 mmHg 53%
    10:00 +33°C° 0 mm 4 mps 759 mmHg 50%
    11:00 +34°C° 0 mm 4 mps 759 mmHg 48%
    12:00 +34°C° 0 mm 5 mps 758 mmHg 49%
    13:00 +34°C° 0 mm 5 mps 758 mmHg 51%
    14:00 +34°C° 0 mm 5 mps 758 mmHg 52%
    15:00 +33°C° 0 mm 5 mps 758 mmHg 57%
    16:00 +32°C° 0 mm 5 mps 758 mmHg 62%
    17:00 +30°C° 0 mm 5 mps 758 mmHg 67%
    18:00 +29°C° 0 mm 4 mps 758 mmHg 71%
    19:00 +28°C° 0 mm 4 mps 759 mmHg 74%
    20:00 +27°C° 0 mm 3 mps 759 mmHg 78%
    21:00 +27°C° 0 mm 3 mps 759 mmHg 78%
    22:00 +26°C° 0 mm 2 mps 759 mmHg 78%
    23:00 +26°C° 0 mm 2 mps 759 mmHg 79%

    Day after tomorrow, 19 August, Saturday

    Time Temperature Precipitation Wind Pressure Humidity
    00:00 +26°C° 0 mm 2 mps 758 mmHg 79%
    01:00 +26°C° 0 mm 2 mps 758 mmHg 78%
    02:00 +26°C° 0 mm 2 mps 758 mmHg 78%
    03:00 +25°C° 0 mm 2 mps 758 mmHg 78%
    04:00 +25°C° 0 mm 1 mps 758 mmHg 78%
    05:00 +25°C° 0 mm 1 mps 757 mmHg 78%
    06:00 +27°C° 0 mm 2 mps 758 mmHg 70%
    07:00 +28°C° 0 mm 2 mps 758 mmHg 63%
    08:00 +30°C° 0 mm 3 mps 758 mmHg 55%
    09:00 +31°C° 0 mm 3 mps 758 mmHg 52%
    10:00 +34°C° 0 mm 4 mps 758 mmHg 48%
    11:00 +35°C° 0 mm 4 mps 757 mmHg 45%
    12:00 +35°C° 0 mm 4 mps 757 mmHg 44%
    13:00 +36°C° 0 mm 5 mps 757 mmHg 43%
    14:00 +36°C° 0 mm 5 mps 756 mmHg 42%
    15:00 +35°C° 0 mm 5 mps 756 mmHg 47%
    16:00 +33°C° 0 mm 5 mps 756 mmHg 52%
    17:00 +32°C° 0 mm 5 mps 756 mmHg 57%
    18:00 +30°C° 0 mm 4 mps 757 mmHg 62%
    19:00 +29°C° 0 mm 3 mps 757 mmHg 66%
    20:00 +28°C° 0 mm 2 mps 758 mmHg 71%
    21:00 +28°C° 0 mm 2 mps 758 mmHg 72%
    22:00 +27°C° 0 mm 2 mps 757 mmHg 73%
    23:00 +27°C° 0 mm 2 mps 757 mmHg 73%

    20 August, Sunday

    Time Temperature Precipitation Wind Pressure Humidity
    00:00 +27°C° 0 mm 2 mps 757 mmHg 74%
    01:00 +27°C° 0 mm 2 mps 757 mmHg 74%
    02:00 +27°C° 0 mm 2 mps 756 mmHg 75%
    03:00 +27°C° 0 mm 1 mps 756 mmHg 76%
    04:00 +26°C° 0 mm 1 mps 756 mmHg 76%
    05:00 +24°C° 0 mm 0 mps 756 mmHg 77%
    06:00 +26°C° 0 mm 0 mps 756 mmHg 71%
    07:00 +28°C° 0 mm 0 mps 757 mmHg 64%
    08:00 +29°C° 0 mm 0 mps 757 mmHg 57%
    09:00 +33°C° 0 mm 1 mps 757 mmHg 52%
    10:00 +36°C° 0 mm 2 mps 757 mmHg 47%
    11:00 +37°C° 0 mm 3 mps 757 mmHg 42%
    12:00 +37°C° 0 mm 3 mps 756 mmHg 42%
    13:00 +38°C° 0 mm 3 mps 756 mmHg 42%
    14:00 +38°C° 0 mm 3 mps 756 mmHg 42%
    15:00 +37°C° 0 mm 3 mps 756 mmHg 44%
    16:00 +36°C° 0 mm 3 mps 756 mmHg 46%
    17:00 +35°C° 0 mm 3 mps 757 mmHg 48%
    18:00 +34°C° 0 mm 2 mps 757 mmHg 51%
    19:00 +32°C° 0 mm 1 mps 758 mmHg 55%
    20:00 +31°C° 0 mm 1 mps 758 mmHg 58%
    21:00 +31°C° 0 mm 1 mps 758 mmHg 56%
    22:00 +32°C° 0 mm 1 mps 758 mmHg 54%
    23:00 +32°C° 0 mm 1 mps 758 mmHg 51%

    21 August, Monday

    Time Temperature Precipitation Wind Pressure Humidity
    00:00 +32°C° 0 mm 2 mps 758 mmHg 52%
    01:00 +31°C° 0 mm 2 mps 757 mmHg 52%
    02:00 +31°C° 0 mm 2 mps 757 mmHg 52%
    03:00 +30°C° 0 mm 2 mps 757 mmHg 55%
    04:00 +30°C° 0 mm 2 mps 757 mmHg 57%
    05:00 +29°C° 0 mm 2 mps 757 mmHg 60%
    06:00 +31°C° 0 mm 2 mps 757 mmHg 55%
    07:00 +32°C° 0 mm 2 mps 757 mmHg 50%
    08:00 +35°C° 0 mm 2 mps 758 mmHg 45%
    09:00 +37°C° 0 mm 2 mps 757 mmHg 40%
    10:00 +38°C° 0 mm 2 mps 757 mmHg 35%
    11:00 +40°C° 0 mm 3 mps 757 mmHg 31%
    12:00 +40°C° 0 mm 3 mps 757 mmHg 32%
    13:00 +41°C° 0 mm 4 mps 756 mmHg 32%
    14:00 +41°C° 0 mm 4 mps 756 mmHg 33%
    15:00 +40°C° 0 mm 5 mps 756 mmHg 37%
    16:00 +39°C° 0 mm 5 mps 756 mmHg 41%
    17:00 +36°C° 0 mm 5 mps 756 mmHg 44%
    18:00 +35°C° 0 mm 4 mps 757 mmHg 47%
    19:00 +34°C° 0 mm 4 mps 758 mmHg 50%
    20:00 +34°C° 0 mm 3 mps 759 mmHg 53%
    21:00 +34°C° 0 mm 3 mps 758 mmHg 50%
    22:00 +34°C° 0 mm 3 mps 758 mmHg 47%
    23:00 +34°C° 0 mm 2 mps 758 mmHg 44%

    22 August, Tuesday

    Time Temperature Precipitation Wind Pressure Humidity
    00:00 +34°C° 0 mm 2 mps 757 mmHg 45%
    01:00 +32°C° 0 mm 2 mps 757 mmHg 46%
    02:00 +32°C° 0 mm 2 mps 756 mmHg 48%
    03:00 +31°C° 0 mm 2 mps 756 mmHg 49%
    04:00 +31°C° 0 mm 2 mps 757 mmHg 51%
    05:00 +31°C° 0 mm 3 mps 757 mmHg 52%
    06:00 +32°C° 0 mm 2 mps 757 mmHg 48%
    07:00 +35°C° 0 mm 2 mps 757 mmHg 44%
    08:00 +36°C° 0 mm 2 mps 757 mmHg 40%
    09:00 +38°C° 0 mm 3 mps 757 mmHg 37%
    10:00 +39°C° 0 mm 3 mps 756 mmHg 34%
    11:00 +40°C° 0 mm 3 mps 756 mmHg 31%
    12:00 +41°C° 0 mm 4 mps 756 mmHg 31%
    13:00 +42°C° 0 mm 5 mps 755 mmHg 32%
    14:00 +42°C° 0 mm 5 mps 755 mmHg 33%
    15:00 +40°C° 0 mm 5 mps 755 mmHg 36%
    16:00 +39°C° 0 mm 5 mps 755 mmHg 40%
    17:00 +36°C° 0 mm 5 mps 755 mmHg 44%
    18:00 +35°C° 0 mm 4 mps 756 mmHg 48%
    19:00 +34°C° 0 mm 4 mps 756 mmHg 51%
    20:00 +33°C° 0 mm 3 mps 757 mmHg 55%
    21:00 +33°C° 0 mm 3 mps 757 mmHg 54%
    22:00 +32°C° 0 mm 2 mps 756 mmHg 54%
    23:00 +32°C° 0 mm 2 mps 756 mmHg 53%
    Show more